Atlantic, IA

4:49 PM CST on February 23, 2018 (GMT -0600)
Atlantic Municipal

Weather History for KAIO - December, 2012

Change the Weather History Date:

Thursday, December 13, 2012

  Actual Average Record
Temperature  
Mean Temperature 36 °F -  
Max Temperature 50 °F 35 °F 53 °F (1998)
Min Temperature 21 °F 17 °F 6 °F (2013)
Degree Days  
Heating Degree Days 30    
Moisture  
Dew Point 18 °F    
Average Humidity 48    
Maximum Humidity 80    
Minimum Humidity 32    
Precipitation  
Precipitation 0.00 in - - ()
Sea Level Pressure  
Sea Level Pressure 30.03 in    
Wind  
Wind Speed 14 mph (SSW)    
Max Wind Speed 21 mph    
Max Gust Speed 26 mph    
Visibility 10 miles    
Events      
Averages and records for this station are not official NWS values.
T = Trace of Precipitation, MM = Missing Value Source: NWS Daily Summary

Daily Weather History Graph

Daily Weather History Graph

Search for Another Location

Airport or City:

Trip Planner

Search our weather history database for the weather conditions in past years. The results will help you decide how hot, cold, wet, or windy it might be!

Date:

Astronomy

Dec. 13, 2012 Rise Set
Actual Time 7:38 AM CST 4:51 PM CST
Civil Twilight 7:06 AM CST 5:22 PM CST
Nautical Twilight 6:32 AM CST 5:57 PM CST
Astronomical Twilight 5:58 AM CST 6:30 PM CST
Moon 7:47 AM CST (12/13) 5:34 PM CST (12/13)
Length of Visible Light 10h 15m
Length of Day
9h 12m
New Moon, 0% of the Moon is Illuminated
Dec 13
New Moon
Dec 19
First Quarter
Dec 28
Full
Jan 4
Last Quarter
Jan 11
New

Hourly Weather History & Observations

Time (CST) Temp. Windchill Dew Point Humidity Pressure Visibility Wind Dir Wind Speed Gust Speed Precip Events Conditions
12:15 AM 37.4 °F 28.2 °F 14.0 °F 38% 30.01 in 10.0 mi South 16.1 mph - N/A   Clear
12:35 AM 37.4 °F 27.5 °F 14.0 °F 38% 30.01 in 10.0 mi South 18.4 mph - N/A   Clear
12:55 AM 39.2 °F 29.3 °F 14.0 °F 36% 30.00 in 10.0 mi South 20.7 mph - N/A   Scattered Clouds
1:15 AM 37.4 °F 27.2 °F 14.0 °F 38% 30.00 in 10.0 mi South 19.6 mph 26.5 mph N/A   Partly Cloudy
1:35 AM 37.4 °F 28.2 °F 14.0 °F 38% 30.00 in 10.0 mi South 16.1 mph 23.0 mph N/A   Partly Cloudy
1:55 AM 37.4 °F 27.5 °F 14.0 °F 38% 30.00 in 10.0 mi South 18.4 mph - N/A   Scattered Clouds
2:15 AM 37.4 °F 27.8 °F 14.0 °F 38% 30.00 in 10.0 mi South 17.3 mph 23.0 mph N/A   Scattered Clouds
2:35 AM 37.4 °F 27.8 °F 14.0 °F 38% 30.00 in 10.0 mi South 17.3 mph - N/A   Scattered Clouds
2:55 AM 37.4 °F 27.5 °F 14.0 °F 38% 30.00 in 10.0 mi South 18.4 mph 25.3 mph N/A   Scattered Clouds
3:15 AM 35.6 °F 25.9 °F 14.0 °F 41% 29.99 in 10.0 mi South 16.1 mph 21.9 mph N/A   Mostly Cloudy
3:35 AM 37.4 °F 28.2 °F 14.0 °F 38% 29.99 in 10.0 mi South 16.1 mph 23.0 mph N/A   Scattered Clouds
3:55 AM 35.6 °F 25.9 °F 14.0 °F 41% 29.99 in 10.0 mi SSW 16.1 mph - N/A   Partly Cloudy
4:15 AM 35.6 °F 25.9 °F 14.0 °F 41% 29.98 in 10.0 mi South 16.1 mph - N/A   Partly Cloudy
4:35 AM 35.6 °F 25.9 °F 14.0 °F 41% 29.98 in 10.0 mi South 16.1 mph 21.9 mph N/A   Scattered Clouds
4:55 AM 35.6 °F 25.9 °F 14.0 °F 41% 29.98 in 10.0 mi South 16.1 mph 21.9 mph N/A   Scattered Clouds
5:15 AM 35.6 °F 25.9 °F 14.0 °F 41% 29.99 in 10.0 mi South 16.1 mph 23.0 mph N/A   Scattered Clouds
5:35 AM 33.8 °F 24.3 °F 14.0 °F 44% 29.99 in 10.0 mi South 13.8 mph - N/A   Partly Cloudy
5:55 AM 33.8 °F 24.3 °F 14.0 °F 44% 29.99 in 10.0 mi SSW 13.8 mph - N/A   Partly Cloudy
6:15 AM 33.8 °F 23.9 °F 15.8 °F 48% 29.99 in 10.0 mi SSW 15.0 mph - N/A   Partly Cloudy
6:35 AM 33.8 °F 24.3 °F 15.8 °F 48% 29.99 in 10.0 mi SSW 13.8 mph 20.7 mph N/A   Clear
6:55 AM 33.8 °F 24.8 °F 15.8 °F 48% 29.99 in 10.0 mi SSW 12.7 mph - N/A   Clear
7:15 AM 33.8 °F 24.8 °F 15.8 °F 48% 30.00 in 10.0 mi SSW 12.7 mph - N/A   Clear
7:35 AM 32.0 °F 23.6 °F 15.8 °F 51% 30.01 in 10.0 mi SSW 10.4 mph - N/A   Clear
7:55 AM 32.0 °F 23.6 °F 15.8 °F 51% 30.01 in 10.0 mi SSW 10.4 mph - N/A   Clear
8:15 AM 32.0 °F 23.0 °F 15.8 °F 51% 30.02 in 10.0 mi South 11.5 mph - N/A   Clear
8:35 AM 33.8 °F 25.3 °F 17.6 °F 52% 30.03 in 10.0 mi South 11.5 mph - N/A   Clear
8:55 AM 35.6 °F 28.0 °F 17.6 °F 48% 30.03 in 10.0 mi SSW 10.4 mph - N/A   Clear
9:15 AM 37.4 °F 28.9 °F 17.6 °F 45% 30.03 in 10.0 mi SSW 13.8 mph - N/A   Clear
9:35 AM 37.4 °F 27.8 °F 17.6 °F 45% 30.03 in 10.0 mi SSW 17.3 mph - N/A   Clear
9:55 AM 39.2 °F 30.8 °F 19.4 °F 45% 30.03 in 10.0 mi SSW 15.0 mph - N/A   Clear
10:15 AM 41.0 °F 32.5 °F 19.4 °F 42% 30.04 in 10.0 mi SSW 17.3 mph - N/A   Clear
10:35 AM 42.8 °F 34.5 °F 19.4 °F 39% 30.04 in 10.0 mi SSW 18.4 mph - N/A   Clear
10:55 AM 42.8 °F 35.1 °F 19.4 °F 39% 30.04 in 10.0 mi SW 16.1 mph 24.2 mph N/A   Clear
11:15 AM 44.6 °F 37.8 °F 19.4 °F 37% 30.04 in 10.0 mi SW 15.0 mph - N/A   Clear
11:35 AM 46.4 °F 40.1 °F 21.2 °F 37% 30.04 in 10.0 mi SW 15.0 mph - N/A   Clear
11:55 AM 46.4 °F 39.8 °F 21.2 °F 37% 30.03 in 10.0 mi SW 16.1 mph - N/A   Clear
12:15 PM 48.2 °F - 21.2 °F 34% 30.02 in 10.0 mi WSW 13.8 mph 20.7 mph N/A   Clear
12:35 PM 48.2 °F - 21.2 °F 34% 30.02 in 10.0 mi SSW 15.0 mph - N/A   Clear
12:55 PM 48.2 °F - 21.2 °F 34% 30.02 in 10.0 mi SW 12.7 mph - N/A   Clear
1:15 PM 50.0 °F - 21.2 °F 32% 30.02 in 9.0 mi SW 15.0 mph - N/A   Clear
1:35 PM 50.0 °F - 21.2 °F 32% 30.01 in 10.0 mi SSW 12.7 mph - N/A   Clear
1:55 PM 50.0 °F - 21.2 °F 32% 30.01 in 10.0 mi SW 10.4 mph - N/A   Clear
2:15 PM 50.0 °F - 21.2 °F 32% 30.01 in 10.0 mi SW 12.7 mph - N/A   Clear
2:35 PM 48.2 °F - 21.2 °F 34% 30.02 in 10.0 mi SW 12.7 mph - N/A   Clear
2:55 PM 48.2 °F - 21.2 °F 34% 30.02 in 10.0 mi SW 9.2 mph - N/A   Clear
3:15 PM 48.2 °F - 23.0 °F 37% 30.03 in 10.0 mi SW 9.2 mph - N/A   Clear
3:35 PM 48.2 °F - 23.0 °F 37% 30.03 in 10.0 mi SW 9.2 mph - N/A   Clear
3:55 PM 48.2 °F - 23.0 °F 37% 30.04 in 10.0 mi SW 5.8 mph - N/A   Clear
4:15 PM 46.4 °F 44.3 °F 23.0 °F 40% 30.04 in 9.0 mi SSW 4.6 mph - N/A   Clear
4:35 PM 44.6 °F 43.1 °F 23.0 °F 43% 30.04 in 10.0 mi South 3.5 mph - N/A   Clear
6:15 PM 33.8 °F - 21.2 °F 60% 30.05 in 6.0 mi Calm Calm - N/A   Haze
7:15 PM 30.2 °F 25.4 °F 19.4 °F 64% 30.06 in 9.0 mi North 4.6 mph - N/A   Clear
7:35 PM 28.4 °F - 19.4 °F 69% 30.07 in 10.0 mi Calm Calm - N/A   Clear
7:55 PM 28.4 °F 24.6 °F 19.4 °F 69% 30.07 in 10.0 mi North 3.5 mph - N/A   Clear
8:15 PM 28.4 °F 23.3 °F 17.6 °F 64% 30.07 in 10.0 mi NNE 4.6 mph - N/A   Clear
8:35 PM 26.6 °F 22.6 °F 19.4 °F 74% 30.06 in 10.0 mi North 3.5 mph - N/A   Clear
8:55 PM 26.6 °F - 17.6 °F 69% 30.06 in 10.0 mi Calm Calm - N/A   Clear
9:15 PM 24.8 °F 19.1 °F 17.6 °F 74% 30.07 in 10.0 mi North 4.6 mph - N/A   Clear
9:35 PM 24.8 °F 17.9 °F 17.6 °F 74% 30.07 in 10.0 mi North 5.8 mph - N/A   Clear
9:55 PM 24.8 °F 20.5 °F 17.6 °F 74% 30.08 in 10.0 mi NNE 3.5 mph - N/A   Clear
10:15 PM 23.0 °F 17.0 °F 17.6 °F 80% 30.08 in 10.0 mi North 4.6 mph - N/A   Clear
10:35 PM 23.0 °F 15.8 °F 17.6 °F 80% 30.07 in 10.0 mi North 5.8 mph - N/A   Clear
10:55 PM 23.0 °F 15.8 °F 15.8 °F 74% 30.07 in 10.0 mi North 5.8 mph - N/A   Clear
11:15 PM 23.0 °F 15.8 °F 15.8 °F 74% 30.07 in 10.0 mi North 5.8 mph - N/A   Clear
11:35 PM 21.2 °F 12.6 °F 15.8 °F 80% 30.07 in 10.0 mi North 6.9 mph - N/A   Clear
11:55 PM 23.0 °F 17.0 °F 17.6 °F 80% 30.07 in 10.0 mi NNE 4.6 mph - N/A   Clear